• In Uzbekistan
  • List of Countries
  • For 7 days
  • Water Temperature
  • Satellite Maps
  • Weather Map
  • Weather Widgets
  • user-avatar
    Login

    Hourly Weather San Luis

    Today, 26 July, Wednesday

    Time Temperature Precipitation Wind Pressure Humidity
    00:00 +12°C° 0 mm 2 mps 700 mmHg 78%
    01:00 +12°C° 0 mm 2 mps 700 mmHg 79%
    02:00 +12°C° 0 mm 2 mps 700 mmHg 80%
    03:00 +12°C° 0 mm 2 mps 700 mmHg 82%
    04:00 +12°C° 0 mm 2 mps 700 mmHg 84%
    05:00 +12°C° 0 mm 2 mps 700 mmHg 85%
    06:00 +12°C° 0 mm 2 mps 700 mmHg 85%
    07:00 +12°C° 0 mm 2 mps 701 mmHg 84%
    08:00 +12°C° 0 mm 2 mps 701 mmHg 83%
    09:00 +14°C° 0 mm 2 mps 702 mmHg 75%
    10:00 +16°C° 0 mm 2 mps 702 mmHg 66%
    11:00 +19°C° 0 mm 2 mps 703 mmHg 57%
    12:00 +20°C° 0 mm 2 mps 702 mmHg 52%
    13:00 +21°C° 0 mm 2 mps 702 mmHg 48%
    14:00 +22°C° 0 mm 3 mps 701 mmHg 44%
    15:00 +22°C° 0 mm 3 mps 701 mmHg 44%
    16:00 +21°C° 0 mm 3 mps 700 mmHg 44%
    17:00 +21°C° 0 mm 3 mps 700 mmHg 44%
    18:00 +20°C° 0 mm 3 mps 700 mmHg 52%
    19:00 +18°C° 0 mm 4 mps 699 mmHg 59%
    20:00 +15°C° 0 mm 4 mps 699 mmHg 67%
    21:00 +15°C° 0 mm 4 mps 699 mmHg 69%
    22:00 +14°C° 0 mm 4 mps 699 mmHg 71%
    23:00 +14°C° 0 mm 4 mps 699 mmHg 73%

    Tomorrow, 27 July, Thursday

    Time Temperature Precipitation Wind Pressure Humidity
    00:00 +14°C° 0 mm 4 mps 699 mmHg 76%
    01:00 +14°C° 0 mm 5 mps 698 mmHg 78%
    02:00 +14°C° 0 mm 6 mps 698 mmHg 80%
    03:00 +14°C° 0 mm 5 mps 697 mmHg 82%
    04:00 +14°C° 0 mm 5 mps 697 mmHg 84%
    05:00 +14°C° 0 mm 5 mps 697 mmHg 86%
    06:00 +14°C° 0 mm 5 mps 697 mmHg 86%
    07:00 +14°C° 0 mm 5 mps 697 mmHg 86%
    08:00 +14°C° 0 mm 5 mps 697 mmHg 86%
    09:00 +17°C° 0 mm 6 mps 697 mmHg 76%
    10:00 +20°C° 0 mm 7 mps 697 mmHg 66%
    11:00 +23°C° 0 mm 8 mps 698 mmHg 56%
    12:00 +24°C° 0 mm 8 mps 697 mmHg 52%
    13:00 +24°C° 0 mm 9 mps 696 mmHg 48%
    14:00 +26°C° 0 mm 9 mps 696 mmHg 44%
    15:00 +26°C° 0 mm 8 mps 695 mmHg 45%
    16:00 +26°C° 0 mm 7 mps 695 mmHg 45%
    17:00 +26°C° 0 mm 6 mps 695 mmHg 45%
    18:00 +23°C° 0 mm 5 mps 695 mmHg 49%
    19:00 +21°C° 0 mm 5 mps 695 mmHg 53%
    20:00 +19°C° 0 mm 4 mps 695 mmHg 58%
    21:00 +19°C° 0 mm 4 mps 695 mmHg 56%
    22:00 +19°C° 0 mm 5 mps 695 mmHg 54%
    23:00 +19°C° 0 mm 5 mps 695 mmHg 52%

    Day after tomorrow, 28 July, Friday

    Time Temperature Precipitation Wind Pressure Humidity
    00:00 +19°C° 0 mm 5 mps 694 mmHg 52%
    01:00 +19°C° 0 mm 5 mps 694 mmHg 53%
    02:00 +17°C° 0 mm 5 mps 694 mmHg 53%
    03:00 +17°C° 0 mm 5 mps 693 mmHg 53%
    04:00 +17°C° 0 mm 5 mps 693 mmHg 53%
    05:00 +17°C° 0 mm 4 mps 693 mmHg 53%
    06:00 +17°C° 0 mm 4 mps 693 mmHg 53%
    07:00 +17°C° 0 mm 4 mps 694 mmHg 53%
    08:00 +17°C° 0 mm 4 mps 694 mmHg 53%
    09:00 +19°C° 0 mm 4 mps 695 mmHg 47%
    10:00 +21°C° 0 mm 5 mps 696 mmHg 40%
    11:00 +25°C° 0 mm 5 mps 696 mmHg 34%
    12:00 +25°C° 0 mm 4 mps 696 mmHg 32%
    13:00 +26°C° 0 mm 4 mps 696 mmHg 31%
    14:00 +27°C° 0 mm 4 mps 695 mmHg 30%
    15:00 +26°C° 0 mm 4 mps 695 mmHg 32%
    16:00 +26°C° 0 mm 4 mps 695 mmHg 33%
    17:00 +25°C° 0 mm 3 mps 695 mmHg 35%
    18:00 +22°C° 0 mm 3 mps 695 mmHg 43%
    19:00 +20°C° 0 mm 3 mps 696 mmHg 51%
    20:00 +18°C° 0 mm 3 mps 696 mmHg 58%
    21:00 +18°C° 0 mm 3 mps 696 mmHg 61%
    22:00 +17°C° 0 mm 3 mps 697 mmHg 64%
    23:00 +17°C° 0 mm 3 mps 697 mmHg 67%

    29 July, Saturday

    Time Temperature Precipitation Wind Pressure Humidity
    00:00 +16°C° 0 mm 3 mps 697 mmHg 70%
    01:00 +15°C° 0 mm 4 mps 697 mmHg 73%
    02:00 +14°C° 0 mm 4 mps 697 mmHg 76%
    03:00 +14°C° 0 mm 5 mps 698 mmHg 78%
    04:00 +14°C° 0 mm 5 mps 698 mmHg 81%
    05:00 +13°C° 0 mm 6 mps 698 mmHg 84%
    06:00 +13°C° 0 mm 6 mps 699 mmHg 82%
    07:00 +13°C° 0 mm 6 mps 699 mmHg 81%
    08:00 +11°C° 0 mm 6 mps 700 mmHg 79%
    09:00 +13°C° 0 mm 6 mps 701 mmHg 74%
    10:00 +12°C° 0 mm 7 mps 701 mmHg 70%
    11:00 +12°C° 0 mm 7 mps 702 mmHg 66%
    12:00 +12°C° 0 mm 7 mps 702 mmHg 63%
    13:00 +14°C° 0 mm 6 mps 701 mmHg 60%
    14:00 +14°C° 0 mm 6 mps 701 mmHg 57%
    15:00 +12°C° 0 mm 7 mps 701 mmHg 58%
    16:00 +11°C° 0 mm 7 mps 701 mmHg 59%
    17:00 +11°C° 0 mm 7 mps 701 mmHg 61%
    18:00 +10°C° 0 mm 7 mps 702 mmHg 63%
    19:00 +10°C° 0 mm 7 mps 702 mmHg 65%
    20:00 +9°C° 0 mm 7 mps 703 mmHg 67%
    21:00 +9°C° 0 mm 7 mps 703 mmHg 69%
    22:00 +8°C° 0 mm 7 mps 704 mmHg 71%
    23:00 +8°C° 0 mm 6 mps 704 mmHg 73%

    30 July, Sunday

    Time Temperature Precipitation Wind Pressure Humidity
    00:00 +8°C° 0 mm 6 mps 704 mmHg 74%
    01:00 +7°C° 0 mm 6 mps 704 mmHg 76%
    02:00 +7°C° 0 mm 6 mps 704 mmHg 77%
    03:00 +7°C° 0 mm 6 mps 704 mmHg 78%
    04:00 +7°C° 0 mm 6 mps 704 mmHg 78%
    05:00 +7°C° 0 mm 6 mps 704 mmHg 79%
    06:00 +7°C° 0 mm 6 mps 704 mmHg 79%
    07:00 +7°C° 0 mm 6 mps 705 mmHg 80%
    08:00 +7°C° 0 mm 6 mps 705 mmHg 80%
    09:00 +7°C° 0 mm 6 mps 706 mmHg 77%
    10:00 +8°C° 0 mm 6 mps 706 mmHg 74%
    11:00 +9°C° 0 mm 6 mps 706 mmHg 70%
    12:00 +9°C° 0 mm 6 mps 706 mmHg 69%
    13:00 +9°C° 0 mm 6 mps 705 mmHg 68%
    14:00 +10°C° 0 mm 6 mps 705 mmHg 67%
    15:00 +9°C° 0 mm 6 mps 705 mmHg 69%
    16:00 +9°C° 0 mm 6 mps 704 mmHg 71%
    17:00 +8°C° 0 mm 6 mps 704 mmHg 73%
    18:00 +8°C° 0 mm 6 mps 704 mmHg 75%
    19:00 +7°C° 0 mm 6 mps 705 mmHg 78%
    20:00 +6°C° 0 mm 5 mps 705 mmHg 81%
    21:00 +6°C° 0 mm 5 mps 705 mmHg 82%
    22:00 +6°C° 0 mm 5 mps 705 mmHg 83%
    23:00 +6°C° 0 mm 5 mps 705 mmHg 85%

    31 July, Monday

    Time Temperature Precipitation Wind Pressure Humidity
    00:00 +6°C° 0 mm 4 mps 704 mmHg 86%
    01:00 +5°C° 0 mm 4 mps 704 mmHg 86%
    02:00 +5°C° 0 mm 4 mps 703 mmHg 87%
    03:00 +5°C° 0 mm 4 mps 703 mmHg 87%
    04:00 +5°C° 0 mm 3 mps 702 mmHg 88%
    05:00 +5°C° 0 mm 3 mps 702 mmHg 88%
    06:00 +5°C° 0 mm 3 mps 702 mmHg 88%
    07:00 +5°C° 0 mm 3 mps 702 mmHg 87%
    08:00 +5°C° 0 mm 3 mps 702 mmHg 86%
    09:00 +8°C° 0 mm 3 mps 702 mmHg 78%
    10:00 +10°C° 0 mm 3 mps 702 mmHg 69%
    11:00 +12°C° 0 mm 3 mps 703 mmHg 61%
    12:00 +13°C° 0 mm 3 mps 702 mmHg 57%
    13:00 +14°C° 0 mm 3 mps 701 mmHg 53%
    14:00 +16°C° 0 mm 2 mps 700 mmHg 48%
    15:00 +16°C° 0 mm 3 mps 700 mmHg 49%
    16:00 +16°C° 0 mm 3 mps 699 mmHg 50%
    17:00 +14°C° 0 mm 3 mps 699 mmHg 51%
    18:00 +13°C° 0 mm 3 mps 699 mmHg 59%
    19:00 +11°C° 0 mm 4 mps 699 mmHg 67%
    20:00 +8°C° 0 mm 4 mps 699 mmHg 75%
    21:00 +8°C° 0 mm 4 mps 699 mmHg 76%
    22:00 +8°C° 0 mm 4 mps 699 mmHg 76%
    23:00 +8°C° 0 mm 3 mps 698 mmHg 76%
    Show more